GW7293 Weather Reports


time (UTC)temp
C
wind
direction
speed
KPH
gust
KPH
rain 1hr
cm
rain 24hr
cm
rain mn
cm
humidity
%
barometer
mb
20260506214020 14 56 1.6 3.2 0.00 1.80 1.80 93 1012.5
20260506213027 13 79 3.2 3.2 0.00 1.80 1.80 93 1012.4
20260506212019 13 77 0.0 1.6 0.00 1.80 1.80 93 1012.4
20260506211027 14 0.0 1.6 0.00 1.80 1.80 92 1012.6
20260506210019 13 145 0.0 3.2 0.00 1.80 1.80 92 1012.6
20260506205027 14 92 3.2 6.4 0.00 1.80 1.80 91 1012.6
20260506204019 14 69 3.2 3.2 0.00 1.80 1.80 91 1012.5
20260506203027 14 35 0.0 1.6 0.00 1.80 1.80 90 1012.5
20260506202019 15 66 0.0 1.6 0.00 1.80 1.80 89 1012.4
20260506201027 15 51 3.2 6.4 0.00 1.80 1.80 89 1012.2
20260506200019 15 79 1.6 4.8 0.00 1.80 1.80 87 1012.2
20260506195028 15 49 1.6 6.4 0.00 1.80 1.80 87 1012.2
20260506194019 15 52 4.8 8.0 0.00 1.80 1.80 86 1012.0
20260506193027 16 61 6.4 9.7 0.00 1.80 1.80 85 1011.8
20260506192019 16 67 4.8 9.7 0.00 1.80 1.80 85 1011.6
20260506191030 16 56 3.2 6.4 0.00 1.80 1.80 84 1011.5
20260506190019 16 77 6.4 8.0 0.00 1.80 1.80 83 1011.4
20260506185027 16 58 4.8 8.0 0.00 1.80 1.80 82 1011.3
20260506184019 16 68 4.8 8.0 0.00 1.80 1.80 81 1011.3
20260506183027 16 62 8.0 14.5 0.00 1.80 1.80 80 1011.1
20260506182019 17 75 9.7 16.1 0.00 1.80 1.80 80 1011.0
20260506181027 17 50 9.7 14.5 0.00 1.80 1.80 81 1011.2
20260506180039 17 52 8.0 12.9 0.00 1.80 1.80 82 1011.1
20260506175027 16 42 6.4 11.3 0.00 1.80 1.80 83 1011.0
20260506174019 16 58 8.0 12.9 0.00 1.80 1.80 84 1011.0
20260506173027 17 60 9.7 12.9 0.00 1.80 1.80 84 1010.9
20260506172159 17 47 9.7 14.5 0.00 1.80 1.80 84 1011.0
20260506171027 17 24 9.7 12.9 0.00 1.80 1.80 84 1011.1
20260506170019 17 31 4.8 9.7 0.00 1.80 1.80 83 1011.0
20260506165027 17 25 8.0 12.9 0.00 1.80 1.80 82 1011.0
20260506164019 17 55 6.4 8.0 0.00 1.80 1.80 81 1010.8
20260506163047 18 25 9.7 16.1 0.00 1.80 1.80 75 1010.9
20260506162019 18 59 6.4 9.7 0.00 1.80 1.80 70 1010.9
20260506161027 18 111 4.8 8.0 0.00 1.80 1.80 69 1010.9
20260506160039 18 80 8.0 14.5 0.00 1.80 1.80 67 1010.8
20260506155027 19 70 9.7 14.5 0.00 1.80 1.80 72 1010.8
20260506154019 18 58 11.3 19.3 0.00 1.80 1.80 75 1010.9
20260506153047 18 49 14.5 19.3 0.00 1.80 1.80 77 1010.9
20260506152019 17 46 14.5 20.9 0.00 1.80 1.80 78 1010.9
20260506151027 17 54 17.7 22.5 0.00 1.80 1.80 80 1011.1
20260506150018 18 44 16.1 20.9 0.00 1.80 1.80 81 1011.0
20260506145027 18 57 11.3 19.3 0.00 1.80 1.80 82 1011.0
20260506144018 18 68 12.9 19.3 0.00 1.80 1.80 81 1011.0
20260506143026 18 59 16.1 22.5 0.00 1.80 1.80 82 1011.2
20260506142019 18 46 17.7 24.1 0.00 1.80 1.80 84 1011.2
20260506141026 17 52 16.1 24.1 0.00 1.80 1.80 86 1011.2
20260506140019 16 36 12.9 17.7 0.00 1.80 1.80 88 1011.3
20260506135027 17 45 14.5 17.7 0.00 1.80 1.80 88 1011.4
20260506134019 16 61 9.7 14.5 0.00 1.80 1.80 90 1011.4
20260506133127 16 73 9.7 14.5 0.05 1.80 1.80 90 1011.5
20260506132019 16 60 9.7 16.1 0.25 1.80 1.80 91 1011.6
20260506131027 16 83 6.4 14.5 0.46 1.80 1.80 91 1011.7
20260506130019 15 77 12.9 20.9 0.91 1.80 1.80 92 1011.5
20260506125027 16 65 11.3 17.7 1.37 1.80 1.80 92 1011.5
20260506124039 16 93 3.2 6.4 1.52 1.80 1.80 92 1011.7
20260506123027 15 54 4.8 8.0 1.52 1.75 1.75 91 1011.5
20260506122019 15 73 6.4 19.3 1.52 1.55 1.55 91 1011.2
20260506121027 15 82 12.9 19.3 1.32 1.35 1.35 88 1011.3
20260506120039 15 220 3.2 9.7 0.86 0.89 0.89 86 1011.7
20260506115107 15 228 6.4 16.1 0.41 0.43 0.43 83 1011.3
20260506114019 16 306 8.0 14.5 0.25 0.28 0.28 81 1011.0
20260506112543 19 62 8.0 20.9 0.10 0.13 0.13 72 1011.0
20260506111531 20 64 14.5 32.2 0.00 0.03 0.03 65 1010.8
20260506110523 22 67 14.5 27.4 0.00 0.03 0.03 59 1010.8
20260506105532 22 59 11.3 20.9 0.00 0.03 0.03 57 1011.0
20260506105027 21 54 8.0 14.5 0.00 0.03 0.03 60 1011.0
20260506104022 22 73 9.7 20.9 0.00 0.03 0.03 58 1011.3
20260506103032 22 64 9.7 17.7 0.00 0.03 0.03 56 1011.2
20260506102021 22 101 8.0 14.5 0.00 0.03 0.03 57 1011.2
20260506101028 22 81 11.3 19.3 0.00 0.03 0.03 60 1011.4
20260506100019 22 148 3.2 17.7 0.00 0.03 0.03 55 1011.4
20260506095027 21 47 6.4 11.3 0.00 0.03 0.03 63 1011.3
20260506094019 20 26 8.0 17.7 0.00 0.03 0.03 64 1011.4
20260506093027 20 73 3.2 8.0 0.00 0.03 0.03 65 1011.5
20260506092039 20 115 8.0 14.5 0.00 0.03 0.03 66 1011.3
20260506091027 20 48 11.3 24.1 0.00 0.03 0.03 66 1011.3
20260506090059 20 15 6.4 14.5 0.00 0.03 0.03 68 1011.3
20260506085027 20 5 8.0 14.5 0.00 0.03 0.03 67 1011.3
20260506084019 20 50 8.0 17.7 0.00 0.03 0.03 68 1011.2
20260506083027 19 45 4.8 9.7 0.00 0.03 0.03 70 1011.3
20260506082019 19 35 8.0 16.1 0.00 0.03 0.03 69 1011.4
20260506081026 19 50 9.7 16.1 0.00 0.03 0.03 70 1011.4
20260506073046 17 82 6.4 9.7 0.00 0.03 0.03 83 1011.4
20260506072038 17 83 4.8 11.3 0.00 0.03 0.03 86 1011.3
20260506071027 17 64 6.4 11.3 0.00 0.03 0.03 88 1011.3
20260506062039 16 29 3.2 4.8 0.00 0.03 0.03 96 1011.4
20260506061027 15 69 4.8 8.0 0.00 0.03 0.03 96 1011.4
20260506051027 12 168 1.6 3.2 0.00 0.03 0.03 97 1011.0
20260506045027 12 95 1.6 3.2 0.00 0.03 0.03 96 1010.7
20260506044039 12 154 1.6 3.2 0.00 0.03 0.03 97 1010.6
20260506043027 12 80 4.8 6.4 0.00 0.03 0.03 97 1010.6
20260506042019 12 132 1.6 6.4 0.00 0.03 0.03 96 1010.6
20260506041027 12 34 6.4 12.9 0.00 0.03 0.03 96 1010.4
20260506040019 13 48 8.0 12.9 0.00 0.03 0.03 97 1010.3
20260506035027 13 56 4.8 8.0 0.03 0.03 0.03 96 1010.1
20260506034019 13 129 1.6 4.8 0.03 0.03 0.03 97 1010.1
20260506033047 13 154 1.6 3.2 0.03 0.03 0.03 96 1010.0
20260506032040 13 152 1.6 4.8 0.03 0.03 0.03 96 1010.0
20260506031027 14 162 8.0 11.3 0.03 0.03 0.03 97 1009.9
20260506030039 13 183 4.8 8.0 0.03 0.03 0.03 96 1010.0
20260506025027 13 190 6.4 8.0 0.00 0.00 0.00 96 1009.9
20260506024019 13 187 6.4 8.0 0.00 0.00 0.00 96 1009.9
20260506023027 13 201 4.8 6.4 0.00 0.00 0.00 96 1010.0
20260506022019 13 192 4.8 6.4 0.00 0.00 0.00 96 1009.9
20260506021027 13 185 6.4 8.0 0.00 0.00 0.00 97 1009.9
20260506020019 12 183 6.4 6.4 0.00 0.00 0.00 97 1010.1
20260506015027 12 194 3.2 6.4 0.00 0.00 0.00 97 1010.2
20260506014019 12 216 1.6 4.8 0.00 0.00 0.00 96 1010.2
20260506013028 12 192 4.8 6.4 0.00 0.00 0.00 96 1010.3
20260506012019 13 226 3.2 6.4 0.00 0.00 0.00 96 1010.3
20260506011028 13 179 3.2 4.8 0.00 0.00 0.00 96 1010.2
20260506010019 13 255 1.6 3.2 0.00 0.00 0.00 95 1010.3
20260506005026 14 165 1.6 3.2 0.00 0.00 0.00 96 1010.4
20260506004019 13 166 1.6 3.2 0.00 0.00 0.00 95 1010.5
20260506003026 13 114 3.2 4.8 0.00 0.00 0.00 96 1010.6
20260506002018 12 121 0.0 1.6 0.00 0.00 0.00 95 1010.8
20260506001107 13 56 1.6 4.8 0.00 0.00 0.00 95 1010.7
20260506000019 13 28 0.0 3.2 0.00 0.00 0.00 95 1010.9
20260505235027 14 87 3.2 6.4 0.00 0.00 0.00 94 1010.9
20260505234019 14 126 4.8 8.0 0.00 0.00 0.00 95 1010.9
20260505233027 15 83 6.4 9.7 0.00 0.00 0.00 94 1011.0
20260505232019 15 275 3.2 8.0 0.00 0.00 0.00 95 1010.7
20260505231027 15 275 4.8 8.0 0.00 0.00 0.00 95 1010.8
20260505230019 15 278 4.8 9.7 0.00 0.00 0.00 94 1010.7
20260505225027 15 281 8.0 9.7 0.00 0.00 0.00 94 1010.7
20260505224019 15 284 6.4 11.3 0.00 0.00 0.00 94 1010.9
20260505223027 15 282 6.4 11.3 0.00 0.00 0.00 94 1011.0
20260505222019 15 268 6.4 11.3 0.00 0.00 0.00 94 1010.9
20260505221027 15 273 8.0 12.9 0.00 0.00 0.00 93 1011.1
20260505220019 15 259 8.0 12.9 0.00 0.00 0.00 93 1011.0
20260505215028 16 250 8.0 11.3 0.00 0.00 0.00 93 1011.2